This is the latest recevied weather packets stored in our database for station/object K7UHP. If no packets are shown the sender has not sent any weather packets the latest 10 day(s).
| Time | Temp. | Humidity | Pressure | Rain* | Wind** | Luminosity | Snow |
|---|---|---|---|---|---|---|---|
| 1777759343 | 22.22° C | 18% | 1017.3 hPa | 0 mm | - | - | - |
| 1777758742 | 22.22° C | 19% | 1017.5 hPa | 0 mm | - | - | - |
| 1777758141 | 22.22° C | 18% | 1017.7 hPa | 0 mm | - | - | - |
| 1777757540 | 22.22° C | 14% | 1017.7 hPa | 0 mm | - | - | - |
| 1777756940 | 22.22° C | 15% | 1018 hPa | 0 mm | - | - | - |
| 1777756339 | 22.22° C | 17% | 1018.1 hPa | 0 mm | - | - | - |
| 1777755738 | 22.22° C | 14% | 1018.2 hPa | 0 mm | - | - | - |
| 1777755137 | 21.67° C | 16% | 1018.3 hPa | 0 mm | - | - | - |
| 1777754536 | 22.22° C | 17% | 1018.4 hPa | 0 mm | - | - | - |
| 1777753935 | 22.22° C | 13% | 1018.4 hPa | 0 mm | - | - | - |
| 1777753334 | 22.22° C | 12% | 1018.6 hPa | 0 mm | - | - | - |
| 1777752734 | 22.22° C | 14% | 1018.6 hPa | 0 mm | - | - | - |
| 1777752133 | 22.78° C | 13% | 1018.8 hPa | 0 mm | - | - | - |
| 1777751532 | 22.22° C | 11% | 1018.8 hPa | 0 mm | - | - | - |
| 1777750932 | 22.22° C | 12% | 1018.9 hPa | 0 mm | - | - | - |
| 1777750331 | 21.67° C | 13% | 1018.9 hPa | 0 mm | - | - | - |
| 1777749730 | 22.22° C | 14% | 1019.1 hPa | 0 mm | - | - | - |
| 1777749129 | 21.67° C | 13% | 1019.3 hPa | 0 mm | - | - | - |
| 1777748528 | 21.11° C | 17% | 1019.5 hPa | 0 mm | - | - | - |
| 1777747928 | 21.11° C | 18% | 1019.6 hPa | 0 mm | - | - | - |
| 1777747327 | 20.56° C | 18% | 1019.6 hPa | 0 mm | - | - | - |
| 1777746726 | 21.11° C | 19% | 1019.8 hPa | 0 mm | - | - | - |
| 1777746125 | 20.56° C | 19% | 1020 hPa | 0 mm | - | - | - |
| 1777745525 | 20° C | 21% | 1020.1 hPa | 0 mm | - | - | - |
| 1777744924 | 20° C | 22% | 1020.2 hPa | 0 mm | - | - | - |
* Rain latest hour (hover to see other rain measurements)
** Current wind speed in m/s (hover to see current wind gust speed)